Regional Weather Roundup
Issued by NWS Nashville, TN

Home | Current Version | Previous Version | Text Only | Print | Product List | Glossary On
Versions: 1 2 3 4 5 6 7 8 9 10 11 12 13 14 15 16 17 18 19 20 21 22 23 24 25 26 27 28 29 30 31 32 33 34 35 36 37 38 39 40 41 42 43 44 45 46 47 48 49 50
000
ASUS44 KOHX 220905
RWROHX
MIDDLE TENNESSEE HOURLY WEATHER ROUNDUP
NATIONAL WEATHER SERVICE NASHVILLE TN
400 AM CDT WED OCT 22 2014

NOTE: "FAIR" INDICATES FEW OR NO CLOUDS BELOW 12,000 FEET WITH
NO SIGNIFICANT WEATHER AND/OR OBSTRUCTIONS TO VISIBILITY.

* THESE REPORTS ARE NOT UNDER NWS QUALITY CONTROL AND MAY NOT
  REPORT WEATHER SUCH AS PRECIPITATION AND FOG.


TNZ005>011-023>034-057-059-062>066-078-080-221000
...NORTHERN MIDDLE TENNESSEE...

CITY           SKY/WX    TMP DP  RH WIND       PRES   REMARKS
CLARKSVILLE    CLEAR     44  40  85 N5        30.18R
CROSSVILLE     CLEAR     43  38  82 N3        30.13R
NASHVILLE      CLEAR     45  41  86 N5        30.17R
SMYRNA         CLEAR     42  40  93 CALM      30.18R
SPARTA           N/A     36  34  93 CALM      30.13S VSB 1/2
$$
TNZ056-058-060-061-075>077-079-093>097-221000
...SOUTHERN MIDDLE TENNESSEE...

CITY           SKY/WX    TMP DP  RH WIND       PRES   REMARKS
COLUMBIA       CLEAR     41  41 100 CALM      30.14R
FAYETTEVILLE   CLEAR     45  39  81 N8        30.12S
MCMINNVILLE    CLEAR     39  39 100 CALM      30.14R
SHELBYVILLE    CLEAR     39  39 100 CALM      30.16R
TULLAHOMA      CLEAR     41  37  87 CALM      30.14R
WINCHESTER     MOCLDY    37  37 100 CALM      30.14R
$$


...KEY TO REMARKS...
VSB - VISIBILITY IN MILES
WCI - WIND CHILL INDEX
HX  - HEAT INDEX




USA.gov is the U.S. government's official web portal to all federal, state and local government web resources and services.